EHI
0 0 0 0 0 0 0 0 0 0 0 0 0 2 7 9 11 14 15 13 10 10 13 17 21 23 21 17 14 13 14 14 13 11 8 7 7 6 6 5 5 4 1 0
0 0 0 0 0 0 0 0 0 0 0 0 0 1 5 9 10 13 15 15 12 12 16 22 25 25 22 17 14 14 16 15 13 11 9 8 7 6 6 6 6 5 3 1
0 0 0 0 0 0 0 0 0 0 0 0 0 1 4 7 9 11 14 15 15 15 20 26 28 26 22 18 16 17 19 17 14 12 10 8 7 6 6 5 6 6 6 5
0 0 0 0 0 0 0 0 0 0 0 0 0 1 4 6 8 11 13 14 14 16 21 27 29 27 24 20 19 21 21 19 16 14 13 10 9 8 6 4 5 5 6 7
0 0 0 0 0 0 0 0 0 0 0 0 0 1 4 6 7 9 12 15 16 15 19 25 29 28 25 22 22 24 24 22 18 16 15 12 10 9 7 6 5 4 4 5
0 0 0 0 0 0 0 0 0 0 0 0 0 1 3 5 5 6 11 17 19 17 17 23 28 28 25 25 26 27 27 26 22 18 15 14 11 9 10 10 8 5 4 4
0 0 0 0 0 0 0 0 0 0 0 0 0 1 3 4 4 6 11 17 20 19 17 20 25 26 26 28 30 30 29 28 25 21 18 16 13 11 12 11 9 6 4 4
0 0 0 0 0 0 0 0 0 0 0 0 0 1 3 4 4 6 11 15 19 20 19 20 22 25 26 28 29 30 28 27 27 26 23 19 16 13 12 10 9 6 4 2
0 0 0 0 0 0 0 0 0 0 0 0 0 1 2 4 5 7 11 14 19 22 23 23 24 24 25 24 25 26 26 25 25 27 26 23 18 15 12 11 9 7 4 2
0 0 0 0 0 0 0 0 0 0 0 0 0 0 1 4 6 8 12 15 18 22 24 24 23 23 22 21 20 22 23 22 23 25 26 24 19 15 14 13 12 8 6 4
0 0 0 0 0 0 0 0 0 0 0 0 0 0 1 4 7 10 12 15 18 21 21 19 20 19 18 17 17 19 21 22 22 22 22 21 18 16 15 15 13 10 8 7
0 0 0 0 0 0 0 0 0 0 0 0 0 0 1 4 7 9 12 14 17 19 19 19 20 18 15 14 16 19 23 24 22 20 19 18 17 16 16 15 13 11 10 10
0 0 0 0 0 0 0 0 0 0 0 0 0 0 2 5 6 7 10 14 18 19 21 22 23 21 17 16 18 21 24 23 19 16 16 16 15 14 14 12 10 10 10 11
0 0 0 0 0 0 0 0 0 0 0 0 0 1 3 6 6 5 8 15 19 21 22 26 26 22 18 17 18 20 21 18 14 12 13 13 12 11 9 7 7 7 8 9
0 0 0 0 0 0 0 0 1 1 0 0 1 1 3 5 6 7 11 17 22 23 25 29 27 20 16 16 18 18 15 13 12 10 10 10 10 8 6 4 5 6 6 6
0 0 0 0 0 0 0 0 1 2 1 1 1 3 4 5 7 10 14 20 23 24 27 29 27 20 16 17 20 18 14 12 12 11 8 8 9 8 5 4 6 5 4 4
0 0 0 0 0 0 0 0 1 3 3 2 2 4 8 10 10 11 15 20 23 24 25 26 25 22 18 18 18 16 13 12 13 12 10 9 9 7 5 5 5 4 3 4
0 0 0 0 0 0 0 0 1 4 5 4 4 7 11 13 12 11 14 19 22 24 22 21 23 23 21 18 15 13 12 12 14 14 14 13 11 8 5 5 4 3 3 4
0 0 0 0 0 0 0 0 2 4 5 5 7 10 14 15 13 13 16 19 21 21 19 20 23 25 24 20 17 16 15 14 13 14 15 14 12 9 6 4 5 5 5 5
0 0 0 0 0 0 0 0 1 2 4 5 9 13 15 14 12 12 14 17 18 17 18 21 24 25 24 21 21 21 19 15 13 12 12 13 13 12 10 9 8 8 7 7
0 0 0 0 0 0 0 0 0 1 2 6 10 13 13 10 7 8 11 14 14 15 18 20 21 21 19 18 21 23 19 13 10 9 9 11 13 14 14 14 12 9 8 8
0 0 0 0 0 0 0 0 0 1 2 6 10 10 9 8 7 8 11 12 14 17 19 19 19 18 16 16 19 18 14 10 8 7 8 9 11 13 14 14 12 8 7 7
0 0 0 0 0 0 0 0 1 2 3 5 7 9 10 11 12 14 14 13 14 17 18 18 19 18 16 15 15 13 10 7 6 7 8 10 10 10 11 12 10 8 6 5
0 0 0 0 0 0 0 0 1 3 4 5 7 10 12 13 15 16 15 14 14 14 14 16 18 17 15 13 11 8 6 5 5 5 7 9 8 8 8 9 9 7 6 5
0 0 0 0 1 1 1 0 2 4 5 7 9 11 12 13 15 16 15 15 15 14 13 14 17 16 13 11 8 5 5 5 4 4 5 6 6 6 7 7 6 4 3 3
0 0 0 0 1 2 2 1 3 6 7 9 9 9 10 12 14 14 15 15 15 15 14 14 16 15 13 11 7 4 5 6 4 3 4 4 5 5 6 6 4 2 1 1
Wind_Speed
2 1 4 8 7 7 5 3 4 7 7 0 3 4 8 9 9 10 9 10 10 10 9 9 10 10 9 8 7 7 6 5 4 3 3 2 2 1 1 2 3 3 3 3
3 6 11 8 6 6 6 4 5 6 4 1 1 3 5 9 11 12 13 12 12 9 8 9 10 10 10 9 8 7 6 6 5 3 3 2 2 2 2 2 2 3 3 3
8 10 6 6 7 6 7 6 6 4 3 3 3 3 3 3 4 7 9 11 11 14 14 12 11 10 10 10 9 8 7 6 5 4 3 2 2 1 1 1 1 2 3 3
7 9 6 6 7 6 7 7 6 4 1 2 2 2 5 4 3 6 7 8 10 11 11 12 11 11 11 10 9 8 7 6 5 5 5 4 3 3 3 2 2 2 3 3
7 5 5 6 9 7 7 6 4 2 1 1 1 2 6 1 3 6 7 7 9 12 13 13 13 12 11 10 9 8 7 6 6 5 6 5 4 3 2 1 1 2 2 2
8 6 4 6 6 5 3 2 4 5 5 1 3 3 5 4 7 6 6 8 8 10 11 11 11 10 9 9 8 8 8 6 6 6 6 6 5 4 3 2 2 2 1 2
7 8 6 3 3 4 2 5 4 5 4 5 3 1 7 7 6 8 8 7 7 9 11 10 11 10 10 10 10 9 9 7 7 7 6 6 5 5 5 4 3 3 2 2
3 7 6 3 6 6 3 8 7 4 4 5 3 3 7 5 3 4 5 5 6 7 9 9 10 11 11 11 10 9 9 8 7 7 6 5 4 3 3 4 3 3 3 3
5 7 7 5 4 6 2 3 8 7 2 1 4 4 6 3 2 4 5 5 4 6 7 9 8 9 9 9 9 10 9 7 7 7 6 5 4 4 3 3 3 3 3 3
7 5 7 5 2 1 5 5 5 6 4 2 3 3 4 3 2 4 5 4 3 4 5 7 8 8 8 8 8 7 8 7 6 7 6 5 5 4 3 3 3 3 3 3
5 5 5 3 2 4 0 2 5 4 6 6 3 7 6 6 5 6 5 5 6 6 5 6 6 6 5 5 6 6 6 5 5 5 5 5 4 4 4 4 4 3 2 2
3 5 3 6 6 4 5 5 7 5 4 4 5 7 4 5 6 7 6 5 6 5 4 4 6 7 6 5 5 5 6 6 6 5 4 4 4 3 4 3 3 2 2 2
4 6 2 7 8 5 1 1 4 6 4 4 4 7 3 2 4 5 6 6 7 7 5 4 5 6 5 5 5 4 5 6 6 5 5 4 3 3 3 3 2 2 1 1
5 5 7 7 6 3 3 4 1 4 4 4 7 6 4 3 3 4 5 6 7 7 6 6 5 4 5 4 4 4 4 4 6 6 5 5 4 4 3 3 2 2 2 1
5 3 3 4 4 1 3 3 3 2 6 7 7 7 8 7 8 7 7 7 7 6 6 6 6 4 3 4 4 4 3 3 5 5 5 5 5 4 3 3 2 2 2 2
4 2 1 3 3 2 3 4 3 2 1 3 3 3 4 3 4 6 8 9 8 7 7 6 6 5 4 4 3 4 4 3 4 5 4 4 3 3 2 2 2 2 2 2
1 3 2 3 4 4 4 4 0 1 1 3 4 5 3 3 4 6 8 9 9 8 7 7 6 6 4 4 4 3 3 2 4 5 4 3 4 3 3 3 2 2 2 2
4 3 3 1 3 3 7 3 1 1 2 1 2 3 5 6 5 3 4 6 7 8 7 6 5 6 5 4 4 2 1 2 3 4 4 4 4 4 3 2 2 2 2 2
6 6 3 3 2 4 6 4 1 1 3 2 3 3 4 5 6 2 0 3 5 7 7 6 6 5 5 5 5 4 3 2 2 3 3 3 4 4 3 3 3 2 2 2
3 5 5 3 2 3 5 6 3 3 2 4 2 4 3 5 4 2 2 1 2 3 4 5 5 5 5 4 5 5 3 3 2 3 3 3 3 4 4 4 3 2 2 2
3 3 3 3 3 4 5 6 5 1 5 3 2 3 3 3 5 4 2 2 3 4 5 5 6 5 5 5 5 5 3 2 2 2 3 2 3 3 4 3 2 2 1 1
2 1 2 3 2 5 5 3 1 5 3 1 2 3 2 2 3 3 3 3 4 3 4 5 5 4 3 5 6 4 3 2 1 1 2 2 2 2 2 2 2 2 3 2
1 4 4 5 6 5 1 1 2 1 1 1 1 1 2 3 3 3 3 3 3 3 4 4 5 4 3 4 5 5 4 3 3 2 1 1 1 1 1 2 3 2 2 2
4 2 2 1 2 2 2 2 3 2 0 1 1 1 3 4 4 4 3 3 2 3 2 3 5 4 2 2 3 4 3 3 3 2 2 2 1 1 1 1 1 2 2 2
3 1 1 1 2 3 4 3 3 4 3 2 3 3 3 4 4 5 4 3 3 2 1 2 4 4 3 2 2 3 3 3 3 2 2 2 2 2 2 1 1 2 3 4
2 3 3 4 5 2 3 3 2 3 3 2 3 3 1 3 3 2 3 3 3 2 1 2 2 4 3 3 2 3 3 4 3 2 2 2 2 1 1 1 1 2 1 1
Wind_Direction
262 125 229 228 209 214 230 238 265 274 281 270 218 199 181 187 181 179 178 178 180 182 180 168 165 160 153 153 153 155 152 161 151 144 147 143 159 159 145 172 171 166 164 156
339 255 236 225 221 231 243 246 262 267 263 145 221 239 198 185 189 186 182 182 182 174 167 167 165 162 161 162 161 160 161 166 167 167 164 161 160 166 166 177 178 179 171 170
217 246 235 224 228 236 250 219 225 237 323 12 104 323 263 225 192 186 186 185 180 176 173 173 170 168 164 165 167 169 169 167 169 158 134 115 85 66 92 171 190 199 188 188
243 251 249 240 237 219 251 234 203 206 118 281 125 230 270 226 213 197 196 187 182 179 174 173 170 170 173 174 169 167 167 167 167 158 149 149 157 175 197 195 201 211 202 201
257 252 244 249 239 222 230 225 189 192 143 34 357 141 279 213 217 220 202 190 182 180 177 176 176 176 176 171 168 170 168 171 170 164 164 162 172 186 188 174 195 217 227 219
256 263 234 239 253 220 212 55 35 46 66 15 255 156 265 227 211 210 197 187 186 180 179 180 177 171 169 167 168 170 168 178 179 174 173 172 177 180 174 186 197 212 231 240
297 288 268 251 296 305 99 93 34 2 10 262 271 168 242 236 203 187 188 187 186 183 176 176 174 172 173 173 174 174 174 182 184 181 184 183 186 186 190 197 196 196 207 220
239 280 265 231 199 217 208 141 157 189 216 272 314 237 259 257 204 169 160 161 165 174 172 172 178 176 174 175 173 172 178 185 186 186 188 186 186 191 203 201 194 199 207 213
197 253 276 263 222 173 188 178 171 142 167 223 274 279 304 310 94 111 115 128 162 171 164 167 171 171 170 172 174 175 178 185 188 185 179 181 186 189 198 203 194 202 210 211
178 238 279 284 -0 316 164 164 95 108 143 234 275 266 239 253 174 138 129 142 158 152 154 156 162 163 171 173 170 172 174 174 181 178 181 185 192 190 192 196 208 209 215 216
165 182 288 337 214 230 255 101 110 121 153 161 222 259 225 191 172 160 164 161 153 142 150 156 158 158 150 153 158 164 170 165 172 179 181 182 184 183 185 201 215 211 209 202
159 137 250 263 257 211 178 173 143 148 223 176 174 255 262 180 167 162 156 149 136 134 155 155 144 137 136 145 152 162 161 162 176 176 170 187 188 184 190 201 208 198 213 221
129 110 55 333 334 350 3 190 150 145 139 162 174 251 278 184 160 159 155 149 136 146 153 137 126 129 134 143 148 155 155 157 162 158 159 169 171 177 196 205 196 187 193 215
115 113 155 195 229 262 300 304 264 138 157 201 208 216 239 217 182 165 157 146 140 147 153 142 137 141 142 144 150 149 155 163 158 154 159 174 185 188 197 196 185 191 192 177
94 132 189 218 237 243 277 293 312 237 193 190 213 198 210 203 186 172 155 147 141 147 153 147 144 143 141 145 154 155 147 161 158 153 166 187 190 191 186 181 186 188 177 179
62 131 96 323 329 346 324 306 307 291 235 177 155 224 222 192 157 161 161 157 158 165 165 158 154 150 147 146 160 154 157 168 161 161 178 186 179 176 181 183 183 183 179 186
42 106 94 284 306 10 311 287 53 317 295 164 186 223 162 127 161 178 173 166 169 175 172 164 164 158 160 156 153 163 172 160 164 173 178 178 174 176 191 189 174 185 192 182
141 110 128 162 30 247 247 259 152 85 354 23 137 155 151 159 169 170 164 164 168 164 162 163 163 158 160 145 136 134 165 171 176 173 173 175 169 173 180 173 190 210 202 194
147 137 123 125 172 273 297 310 281 135 335 356 115 129 128 122 84 42 227 153 168 167 162 163 161 152 143 140 144 142 158 172 184 176 178 185 179 177 181 189 201 205 204 223
65 108 121 130 146 224 269 302 308 85 316 316 115 125 132 104 103 246 257 172 128 128 139 140 135 128 133 146 144 138 140 155 187 195 188 188 182 182 186 195 199 202 203 222
16 37 114 151 189 247 270 312 8 105 241 278 139 136 132 146 185 200 164 99 112 131 135 132 129 133 149 156 145 137 134 166 213 203 173 177 184 185 185 190 190 191 210 215
177 159 178 140 160 254 295 19 123 219 240 241 113 122 120 147 138 116 108 100 99 120 123 129 129 134 145 147 139 138 162 201 183 168 159 166 187 200 195 188 194 190 192 191
189 193 184 175 199 231 282 155 208 178 209 254 140 144 119 129 128 115 113 115 122 132 138 145 138 135 140 151 149 157 190 176 141 117 148 171 187 228 223 197 197 204 207 204
308 11 79 52 297 317 351 25 16 14 273 262 147 118 119 125 128 116 126 128 116 102 135 146 130 129 142 161 156 170 183 162 144 150 189 182 166 161 297 259 213 209 219 216
275 358 31 329 301 359 0 359 347 357 16 45 67 78 118 116 130 139 142 147 140 132 149 151 148 152 166 161 161 170 169 147 149 176 189 188 175 178 202 235 232 229 238 222
249 189 177 227 237 201 265 299 353 16 1 26 79 51 48 125 122 126 147 155 152 144 142 151 161 160 168 162 166 175 170 161 160 180 191 190 189 197 192 192 311 348 322 291